This is the latest recevied weather packets stored in our database for station/object TG8ARF-18. If no packets are shown the sender has not sent any weather packets the latest 10 day(s).
| Time | Temp. | Humidity | Pressure | Rain* | Wind** | Luminosity | Snow |
|---|---|---|---|---|---|---|---|
| 1778030904 | 16.11° C | 88% | 1016 hPa | 0 mm | - | - | - |
| 1778030303 | 17.22° C | 86% | 1016 hPa | 0 mm | - | - | - |
| 1778029702 | 16.11° C | 86% | 1016 hPa | 0 mm | - | - | - |
| 1778029102 | 17.22° C | 85% | 1016 hPa | 0 mm | - | - | - |
| 1778028501 | 16.11° C | 85% | 1016 hPa | 0 mm | - | - | - |
| 1778027901 | 17.22° C | 81% | 1016 hPa | 0 mm | - | - | - |
| 1778027300 | 16.11° C | 81% | 1015 hPa | 0 mm | - | - | - |
| 1778026699 | 20° C | 81% | 1015 hPa | 0 mm | - | - | - |
| 1778026099 | 21.67° C | 81% | 1015 hPa | 0 mm | - | - | - |
| 1778025498 | 21.67° C | 84% | 1015 hPa | 0 mm | - | - | - |
| 1778024898 | 19.44° C | 84% | 1015 hPa | 0 mm | - | - | - |
| 1778024297 | 22.22° C | 83% | 1015 hPa | 0 mm | - | - | - |
| 1778023697 | 22.22° C | 82% | 1014 hPa | 0 mm | - | - | - |
| 1778023096 | 20.56° C | 82% | 1014 hPa | 0 mm | - | - | - |
| 1778022496 | 20.56° C | 83% | 1014 hPa | 0 mm | - | - | - |
| 1778021895 | 20.56° C | 84% | 1014 hPa | 0 mm | - | - | - |
| 1778021294 | 20.56° C | 84% | 1014 hPa | 0 mm | - | - | - |
| 1778020694 | 20.56° C | 83% | 1014 hPa | 0 mm | - | - | - |
| 1778020093 | 20.56° C | 79% | 1014 hPa | 0 mm | - | - | - |
| 1778019493 | 20.56° C | 79% | 1014 hPa | 0 mm | - | - | - |
| 1778018892 | 23.89° C | 78% | 1014 hPa | 0 mm | - | - | - |
| 1778018292 | 20° C | 76% | 1014 hPa | 0 mm | - | - | - |
| 1778017691 | 18.89° C | 76% | 1014 hPa | 0 mm | - | - | - |
| 1778017090 | 18.89° C | 76% | 1014 hPa | 0 mm | - | - | - |
| 1778016490 | 17.78° C | 76% | 1014 hPa | 0 mm | - | - | - |
* Rain latest hour (hover to see other rain measurements)
** Current wind speed in m/s (hover to see current wind gust speed)